COSMOS 2251 DEB, 34053

Orbit data source: Space-Track

COSMOS 2251 DEB, 34053 is space debris in LEO originally from a launch on Wed, 16 Jun 1993 UTC launched from the Plesetsk Missile And Space Complex (PKMTR). The debris from Iridium 33, an American commercial communications satellite, has been tracked extensively since its accidental collision with the defunct Russian satellite Cosmos 2251 in 2009. This event, occurring at high speed in low Earth orbit (LEO), generated thousands of pieces of space debris, significantly increasing the risk of further collisions. The Iridium 33 debris cloud has impacted space traffic management and orbital debris mitigation strategies, making it a subject of ongoing study in space situational awareness.

Loading next visibility...
Identifier
34053, 1993-036JQ
Orbit
LEO
Country
Flag of CISCIS
Related business
Manufacturer
Unknown
Mission
Spacecraft
Bus & Motor
Unknown
Mass
Unknown
Launch date (UTC)
1993-06-16 (33 years ago)
Launch vehicle
Unknown
Launch site
Plesetsk Missile And Space Complex (PKMTR)
Object type
Payload
Rocket body
Debris
Shape & HBR
Unknown shape, 0.1 m
Radar Cross Section
Small (<0.1 m²)

Expand to show TLE details & history
Last TLE update: 1 day ago

TLE from 1 day ago
0 COSMOS 2251 DEB
1 34053U 93036JQ  26036.77613992  .00000870  00000-0  81602-3 0  9992
2 34053  73.8448 153.4727 0424316 292.9535  62.7329 13.49236510834261
Epoch: 2026-02-05T18:37Z
TLE epoch observation values (Epoch: 2026-02-05T18:37:38.489Z)
Latitude
-0.00003°
Longitude
98.1388°
Altitude
943.575 km
Speed
7.446 km/s
True Right ascension
10h 13m 53s
True Declination
0° 00' 00"
Sunlit
Object was in full shadow at epoch
Visualization orbit readout
Latitude
Unknown
Longitude
Unknown
Altitude
Unknown
Speed
Unknown
Apparent Right ascension
Unknown
Apparent Declination
Unknown
Sunlit
N/A
Visualization observer readout
Local Sidereal Time
21:16:59
Azimuth
Unknown
Elevation
Unknown
Doppler factor
Unknown
Orbital elements
Apogee altitude
1,388.955 km
Perigee altitude
756.644 km
Semi-major axis
7,450.937 km
Eccentricity
0.04243
Inclination
73.8448°
RAAN
153.4727°
Arg. of periapsis
292.9535°
True anomaly
67.15802°
Mean anomaly
62.7329°
Eccentric anomaly
64.93511°
Mean motion
3.37464 °/min
Orbital period
106.68 mins
BSTAR
0.00081602
Loading maneuver chart data...
Computing Atmospheric mass density...

Documentation

Showing up to 5 results
|